SQ2WB-13 Weather Reports


Display with metric or nautical units.
time (UTC)temp
F
wind
direction
speed
MPH
gust
MPH
rain 1hr
in
rain 24hr
in
rain mn
in
humidity
%
barometer
mb
20260506233001 48 57 1.0 1.0 0.00 0.00 0.00 89 999.3
20260506231501 48 93 1.0 3.0 0.00 0.00 0.00 88 999.6
20260506230001 50 100 2.0 2.0 0.00 0.00 0.00 87 999.6
20260506224502 50 74 0.0 1.0 0.00 0.00 0.00 87 1000.0
20260506223001 50 90 0.0 1.0 0.00 0.00 0.00 87 999.6
20260506221502 50 77 3.0 4.0 0.00 0.00 0.00 88 998.9
20260506220003 50 42 4.0 7.0 0.00 0.00 0.00 90 998.9
20260506214502 51 111 1.0 1.0 0.00 0.00 0.00 89 998.3
20260506213001 51 63 3.0 3.0 0.00 0.00 0.00 90 998.3
20260506211502 51 356 2.0 3.0 0.00 0.00 0.00 89 997.9
20260506210001 53 44 3.0 4.0 0.00 0.00 0.00 89 997.9
20260506204501 53 90 3.0 3.0 0.00 0.00 0.00 89 997.9
20260506203001 53 33 1.0 2.0 0.00 0.00 0.00 89 997.6
20260506201501 55 90 0.0 0.0 0.00 0.00 0.00 87 997.9
20260506200001 55 127 0.0 0.0 0.00 0.00 0.00 87 997.9
20260506194501 55 188 1.0 3.0 0.00 0.00 0.00 85 997.6
20260506193001 57 175 1.0 1.0 0.00 0.00 0.00 85 997.6
20260506191501 57 235 1.0 1.0 0.00 0.00 0.00 83 997.6
20260506190001 57 151 1.0 3.0 0.00 0.00 0.00 81 997.2
20260506184501 59 117 1.0 1.0 0.00 0.00 0.00 81 997.2
20260506183002 59 285 2.0 3.0 0.00 0.00 0.00 79 997.2
20260506181502 60 174 4.0 6.0 0.00 0.00 0.00 76 997.2
20260506180002 62 144 0.0 0.0 0.00 0.00 0.00 75 996.9
20260506174501 64 160 1.0 1.0 0.00 0.00 0.00 70 996.9
20260506173002 66 166 2.0 3.0 0.00 0.00 0.00 67 996.6
20260506171501 68 116 1.0 1.0 0.00 0.00 0.00 64 996.6
20260506170002 68 201 3.0 5.0 0.00 0.00 0.00 63 996.2
20260506164500 69 125 1.0 3.0 0.00 0.00 0.00 62 996.2
20260506163002 69 182 2.0 2.0 0.00 0.00 0.00 61 996.2
20260506161501 68 219 5.0 6.0 0.00 0.00 0.00 62 996.2
20260506160002 71 126 3.0 4.0 0.00 0.00 0.00 59 996.2
20260506154501 71 191 4.0 4.0 0.00 0.00 0.00 58 996.2
20260506153001 71 139 2.0 2.0 0.00 0.00 0.00 57 996.2
20260506151502 68 203 5.0 5.0 0.00 0.00 0.00 61 996.2
20260506150002 68 227 3.0 4.0 0.00 0.00 0.00 60 996.2
20260506144501 69 161 1.0 3.0 0.00 0.00 0.00 60 996.2
20260506143002 69 146 6.0 6.0 0.00 0.00 0.00 59 996.2
20260506141501 68 227 5.0 5.0 0.00 0.00 0.00 60 996.2
20260506140001 68 176 4.0 4.0 0.00 0.00 0.00 61 996.6
20260506134501 68 152 2.0 5.0 0.00 0.00 0.00 61 996.6
20260506133001 68 195 6.0 6.0 0.00 0.00 0.00 62 996.6
20260506131502 66 219 3.0 5.0 0.00 0.00 0.00 62 996.6
20260506130001 66 166 3.0 6.0 0.00 0.00 0.00 63 996.6
20260506124501 68 186 2.0 3.0 0.00 0.00 0.00 61 996.6
20260506123002 66 160 7.0 11.0 0.00 0.00 0.00 62 996.9
20260506121500 66 192 4.0 6.0 0.00 0.00 0.00 61 996.6
20260506120001 68 201 5.0 8.0 0.00 0.00 0.00 59 996.9
20260506114502 66 245 5.0 8.0 0.00 0.00 0.00 63 996.6
20260506113001 66 188 3.0 8.0 0.00 0.00 0.00 63 996.6
20260506111502 66 208 4.0 13.0 0.00 0.00 0.00 61 996.2
20260506110001 68 223 10.0 13.0 0.00 0.00 0.00 61 996.2
20260506104502 68 214 3.0 6.0 0.00 0.00 0.00 62 996.2
20260506103001 66 154 6.0 9.0 0.00 0.00 0.00 61 996.2
20260506101502 68 196 3.0 6.0 0.00 0.00 0.00 61 995.6
20260506100003 66 201 6.0 7.0 0.00 0.00 0.00 61 995.6
20260506094501 66 170 1.0 2.0 0.00 0.00 0.00 61 995.6
20260506093001 64 251 4.0 4.0 0.00 0.00 0.00 62 995.6
20260506091502 64 185 3.0 3.0 0.00 0.00 0.00 63 995.6
20260506090002 62 166 3.0 3.0 0.00 0.00 0.00 66 995.6
20260506084502 62 138 2.0 3.0 0.00 0.00 0.00 67 995.2
20260506083002 62 189 2.0 2.0 0.00 0.00 0.00 63 995.2
20260506081501 62 199 4.0 4.0 0.00 0.00 0.00 65 995.2
20260506073001 62 108 0.0 0.0 0.00 0.00 0.00 65 995.2
20260506071501 62 167 1.0 2.0 0.00 0.00 0.00 66 994.9
20260506061501 57 69 1.0 1.0 0.00 0.00 0.00 78 995.6
20260506044501 51 83 3.0 4.0 0.00 0.00 0.00 90 996.2
20260506043002 51 89 3.0 4.0 0.00 0.00 0.00 92 996.6
20260506041503 50 49 1.0 1.0 0.00 0.00 0.00 94 996.9
20260506040004 50 89 2.0 4.0 0.00 0.00 0.00 96 997.2
20260506034502 50 90 2.0 2.0 0.00 0.00 0.00 96 997.2
20260506033002 50 70 1.0 2.0 0.00 0.00 0.00 97 997.2
20260506031501 50 81 1.0 1.0 0.00 0.00 0.00 97 997.2
20260506030001 50 75 1.0 2.0 0.00 0.00 0.00 97 997.2
20260506024501 50 81 1.0 2.0 0.00 0.00 0.00 96 997.2
20260506023002 50 91 0.0 0.0 0.00 0.00 0.00 96 997.2
20260506021502 50 78 2.0 2.0 0.00 0.00 0.00 95 997.2
20260506020001 50 82 2.0 2.0 0.00 0.00 0.00 95 997.6
20260506014501 51 37 3.0 3.0 0.00 0.00 0.00 94 997.6
20260506013001 51 102 2.0 3.0 0.00 0.00 0.00 94 997.6
20260506011501 51 83 3.0 3.0 0.00 0.00 0.00 94 997.9
20260506010001 51 88 2.0 5.0 0.00 0.00 0.00 94 998.3
20260506004503 51 41 2.0 3.0 0.00 0.00 0.00 94 997.9
20260506003002 51 80 1.0 3.0 0.00 0.00 0.00 95 997.9
20260506001502 51 39 2.0 3.0 0.00 0.00 0.00 95 998.3
20260506000002 51 86 1.0 3.0 0.00 0.00 0.00 95 998.9
20260505234501 51 34 4.0 4.0 0.00 0.00 0.00 95 998.9